Flag for U.S.A. Weather past 2 weeks in Asheville, North Carolina, U.S.A.

Now
47 °F

Clear.


Feels Like: 46 °F
Forecast: 38 / 68 °F
Wind: 3 mph from North

Location: Asheville Regional Airport

Current Time: Apr 28, 2015 at 4:06:29 AM

Latest Report: Apr 28, 2015 at 2:54 AM


Visibility: 10 mi

Pressure: 29.91 "Hg

Humidity: 59%

Dew point: 33 °F

Location of AshevilleLocation

Historic Weather in Asheville — Graph

°F

Asheville temperature yesterday

Maximum temperature yesterday: 62 °F (at 2:54 PM)
Minimum temperature yesterday: 46 °F (at 4:54 AM)
Average temperature yesterday: 54 °F

Past Weeks' High & Low Weather Summary

 TemperatureHumidityPressure
High78 °F (Apr 14, 5:54 PM)97% (Apr 14, 1:54 AM)30.35 "Hg (Apr 14, 1:54 AM)
Low37 °F (Apr 22, 6:54 AM)17% (Apr 24, 4:54 PM)29.54 "Hg (Apr 26, 1:54 AM)
Average58 °F70%29.94 "Hg
* Reported Apr 13 2:54 AM — Apr 28 2:54 AM, Asheville, Weather by CustomWeather, © 2015

Note: Actual official high and low records may vary slightly from our data, if they occured in-between our weather recording intervals... More about our weather records

Advertising

Asheville weather history for previous 24 hours

 ConditionsComfort  
Time TempWeatherWind HumidityBarometerVisibility
2:54 AM
Tue, Apr 28
47 °FClear.3 mph59%29.91 "Hg10 mi
1:54 AM48 °FClear.6 mph56%29.92 "Hg10 mi
12:54 AM48 °FClear.7 mph59%29.92 "Hg10 mi
11:54 PM
Mon, Apr 27
49 °FClear.3 mph57%29.92 "Hg10 mi
10:54 PM52 °FClear.6 mph47%29.92 "Hg10 mi
9:54 PM53 °FClear.5 mph45%29.92 "Hg10 mi
8:54 PM55 °FSunny.10 mph42%29.89 "Hg10 mi
7:54 PM58 °FSunny.10 mph38%29.86 "Hg10 mi
6:54 PM60 °FSunny.16 mph33%29.84 "Hg10 mi
5:54 PM61 °FSunny.16 mph34%29.83 "Hg10 mi
4:54 PM62 °FSunny.13 mph31%29.82 "Hg10 mi
3:54 PM62 °FSunny.14 mph32%29.84 "Hg10 mi
2:54 PM62 °FSunny.16 mph34%29.83 "Hg10 mi
1:54 PM59 °FSunny.9 mph32%29.85 "Hg10 mi
12:54 PM59 °FSunny.13 mph35%29.86 "Hg10 mi
11:54 AM57 °FSunny.10 mph41%29.88 "Hg10 mi
10:54 AM56 °FSunny.15 mph44%29.88 "Hg10 mi
9:54 AM54 °FSunny.14 mph51%29.87 "Hg10 mi
8:54 AM51 °FSunny.15 mph61%29.85 "Hg10 mi
7:54 AM49 °FMostly cloudy.8 mph74%29.83 "Hg10 mi
6:54 AM48 °FPassing clouds.8 mph80%29.81 "Hg10 mi
5:54 AM46 °FPassing clouds.3 mph86%29.78 "Hg10 mi
4:54 AM46 °FClear.5 mph86%29.78 "Hg10 mi
Weather by CustomWeather, © 2015

See weather overviewHow to use our weather pages